Tracking 20370 objects as of 20-Feb-2020
HD Live streaming from Space Station
objects crossing your sky now
Track the group of recently launched Starlink satellites

COSMOS 1088

Track COSMOS 1088 now!
10-day predictions
COSMOS 1088 is classified as:


NORAD ID: 11303
Int'l Code: 1979-024H
Perigee: 1,472.6 km
Apogee: 1,553.9 km
Inclination: 74.0 °
Period: 116.1 minutes
Semi major axis: 7884 km
RCS: 0.7099 m2 (medium)
Launch date: March 15, 1979
Source: Commonwealth of Independent States (former USSR) (CIS)
Launch site: PLESETSK MISSILE AND SPACE COMPLEX (PKMTR)
aabbcc
Your satellite tracking list
Your tracking list is empty




NASA's NSSDC Master Catalog

Two Line Element Set (TLE):
1 11303U 79024H   20050.57485087 -.00000032 +00000-0 -12525-3 0  9996
2 11303 074.0344 167.6299 0051579 163.0058 208.3453 12.40123409853188
Source of the keplerian elements: AFSPC